This demonstration page uses our WeatherBlox Daily Observations layout. Learn more.

Left ArrowRight Arrow

39.92423, -83.80882

Hourly Observations for June 10, 2022

Temp ( °F °C ) Dew Point ( °F °C ) Humidity (%) Winds ( mph kmh ) Pressure ( in mb ) Visibility ( mi km ) Precip ( " mm )
12:56 am 00:56 Clear 58 14.4 58 14.4 100 100 SW 3 6 29.97 1015 10 16 0.00 0.00
1:56 am 01:56 Clear 55 13 N/A N/A WSW 3 6 29.96 1015 10 16 0.02 0.51
2:56 am 02:56 Clear 55 13 N/A N/A Calm 29.95 1014 10 16 0.00 0.00
3:56 am 03:56 Clear N/A N/A N/A Calm N/A 10 16 0.00 0.00
4:56 am 04:56 Clear N/A N/A N/A Calm N/A 10 16 0.00 0.00
5:56 am 05:56 Clear with Mist and Fog N/A N/A N/A Calm N/A 3 4 0.00 0.00
6:14 am 06:14 Sunny N/A N/A N/A Calm N/A 8 13 0.00 0.00
6:46 am 06:46 Sunny with Mist and Fog N/A N/A N/A Calm N/A 2 3 0.00 0.00
6:56 am 06:56 Hazy N/A N/A N/A Calm N/A 4 6 0.00 0.00
7:56 am 07:56 Mostly Sunny 63 17 N/A N/A Calm 29.98 1015 10 16 0.00 0.00
8:56 am 08:56 Sunny 66 18.9 53 11.7 63 63 NE 5 7 29.97 1015 10 16 0.00 0.00
9:56 am 09:56 Sunny 69 20.6 55 12.8 61 61 E 6 9 29.97 1015 10 16 0.00 0.00
10:56 am 10:56 Sunny 71 21.7 49 9.4 46 46 Calm 29.98 1015 10 16 0.00 0.00
11:56 am 11:56 Sunny 73 22.8 44 6.7 35 35 N 6 9 29.98 1015 10 16 0.00 0.00
12:56 pm 12:56 Sunny 73 22.8 45 7.2 37 37 W 3 6 29.97 1015 10 16 0.00 0.00
1:56 pm 13:56 Mostly Sunny 73 22.8 48 8.9 41 41 S 3 6 29.96 1015 10 16 0.00 0.00
2:56 pm 14:56 Sunny 73 22.8 48 8.9 41 41 SW 3 6 29.94 1014 10 16 0.00 0.00
3:56 pm 15:56 Sunny 73 22.8 48 8.9 41 41 SE 6 9 29.90 1013 10 16 0.00 0.00
4:56 pm 16:56 Sunny 73 22.8 50 10 44 44 SW 7 11 29.90 1013 10 16 0.00 0.00
5:56 pm 17:56 Sunny 72 22.2 50 10 46 46 SSW 5 7 29.89 1012 10 16 0.00 0.00
6:56 pm 18:56 Cloudy 66 18.9 57 13.9 73 73 SW 14 22 29.92 1013 10 16 0.00 0.00
7:56 pm 19:56 Cloudy 65 18.3 61 16.1 87 87 SW 7 11 29.94 1014 10 16 0.00 0.00
8:56 pm 20:56 Cloudy 64 17.8 62 16.7 93 93 SW 6 9 29.93 1014 10 16 0.00 0.00
9:56 pm 21:56 Cloudy 64 17.8 64 17.8 100 100 S 3 6 29.94 1014 10 16 0.02 0.51
10:56 pm 22:56 Partly Cloudy 63 17 N/A N/A SW 8 13 29.95 1014 10 16 0.00 0.00
11:56 pm 23:56 Cloudy with Light Rain 63 17 N/A N/A SW 9 15 29.94 1014 10 16 0.00 0.00

Powered by AerisWeather